Location: Beekmeers
(50.8953°N, 3.6968°E)
Time: 02:13:18
(UTC+00:00)

Meteor 1-28 Rocket - Pass Details

Date: 23 May 2024
Orbit: 474 x 489 km, 97.5° (Epoch: 21 June)

Event Time Altitude Azimuth Distance (km) Brightness Sun altitude
Exits shadow 02:00:37 - 157° (SSE) 2,035 5.9 -12.2°
Reaches altitude 10° 02:01:31 10° 156° (SSE) 1,658 5.5 -12.2°
Maximum altitude 02:05:03 67° 74° (ENE) 527 3.4 -11.8°
Drops below altitude 10° 02:08:36 10° 351° (N) 1,664 6.5 -11.5°
Sets 02:10:40 0° 349° (N) 2,546 7.4 -11.3°
